Location: Brabourne
(51.1333°N, 1.0000°E)
Time: 07:53:40
(UTC+00:00)

NOSS 2-3 (D) - Pass Details

Date: 20 June 2021
Orbit: 559 x 1652 km, 63.4° (Epoch: 23 July)

Event Time Altitude Azimuth Distance (km) Brightness Sun altitude
Exits shadow 01:22:25 13° 241° (WSW) 1,769 5.5 -13.1°
Maximum altitude 01:26:13 60° 321° (NW) 760 4.1 -12.9°
Drops below altitude 10° 01:31:22 10° 42° (NE) 2,345 7.7 -12.6°
Sets 01:34:08 0° 46° (NE) 3,444 8.7 -12.5°
